Reflectivity
-20 -20 -20 -20 -20 -20 -20 -20 -20 -20 -20 -20 -20 -20 -20 -20 -20 -20 -20 -20 -2 4 10 -20 11 -16 -20 -20 -20 -20 -20 -20 -20 -20 -20 0 8 -20 -20 -20 -20 -20 17 -20 -20 -20 -20 -10 -5
-20 -20 -20 -20 -20 -20 -20 -20 -20 -20 -20 -20 -20 -20 -20 -20 -20 -20 -14 -20 0 4 16 10 1 2 -20 -20 -20 -20 -20 -20 -17 -20 -20 -3 7 -20 -20 -20 -20 -20 28 13 7 -20 -20 -20 -20
-20 -20 -20 -20 -20 -20 -20 -20 -20 -20 -20 -20 -20 -20 -20 -20 -20 -20 -20 -20 8 11 15 17 8 -19 -5 -20 -20 -20 -10 -9 -11 -20 -20 -2 -13 -1 -20 -20 -20 -20 27 26 -20 -20 -20 -20 -20
-20 -20 -20 -20 -20 -20 -20 -20 -20 -20 -20 -20 -20 -20 -20 -20 -20 -20 -20 -20 12 14 16 -19 -20 -20 21 -20 13 -20 -1 1 3 3 1 -3 -20 -4 -3 -20 -20 -20 21 25 -20 -20 -20 -20 -20
-20 -20 -20 -20 -20 -20 -20 -20 -20 -20 -20 -20 -20 -20 -20 -20 -20 -20 -20 -20 4 14 15 12 -20 -17 2 -8 -20 2 -18 -20 -20 -8 -20 -20 -20 4 -10 -20 -20 -11 14 22 -20 -20 -20 -20 -20
-20 -20 -20 -20 -20 -20 -20 -20 -20 -20 -20 -20 -20 -20 -20 -20 -20 -20 -20 -20 -20 -11 17 15 -20 -20 -0 -18 -20 -20 -20 -20 -5 -20 -20 -20 -20 -20 24 -20 -20 -20 -20 28 -20 -20 -20 -20 -20
-20 -20 -20 -20 -20 -20 -20 -20 -20 -20 -20 -20 -20 -20 -20 -20 -20 -20 -20 -20 -20 3 3 15 10 -1 -11 -20 -11 8 -20 -20 -20 -5 11 15 -15 -20 -20 -20 -4 -20 24 8 -20 -20 -20 -20 -20
-20 -20 -20 -20 -20 -20 -20 -20 -20 -20 -20 -20 -20 -20 -20 -20 -20 -20 -20 -20 -20 -20 -20 2 14 -19 -15 -20 -20 -20 -20 -20 -20 -20 -20 -20 -16 -20 23 -20 28 -18 21 9 -20 -20 -20 -20 -20
-20 -20 -20 -20 -20 -20 -20 -20 -20 -20 -20 -20 -20 -20 -20 -20 -20 -20 -20 -20 -20 -20 -20 -20 -18 19 10 -20 -20 -20 -20 -20 -20 -20 -14 -15 -20 -20 4 -15 -20 -20 22 11 25 -20 -20 -20 -20
-20 -20 -20 -20 -20 -20 -20 -20 -20 -20 -20 -20 -20 -20 -20 -20 -20 -20 -20 -20 -20 -20 -20 -20 -20 -12 8 12 -13 -8 -20 -20 -20 -20 -20 -14 -20 -20 -20 -13 -20 1 -20 6 25 -20 -20 -20 -20
-20 -20 -20 -20 -20 -20 -20 -20 -20 -20 -20 -20 -20 -20 -20 -20 -20 -20 -20 -20 -20 -20 -20 -20 -20 -20 -20 18 19 16 -14 -20 -20 -20 1 -4 -20 8 2 3 -5 -13 -20 15 -16 -2 -20 -20 -20
-20 -20 -20 -20 -20 -20 -20 -20 -20 -20 -20 -20 -20 -20 -20 -20 -20 -20 -20 -20 -20 -20 -20 -20 -20 -20 -20 -7 22 21 20 -20 -20 -20 -20 -20 -11 6 -1 -20 8 5 2 16 23 17 -20 -20 -20
-20 -20 -20 -20 -20 -20 -20 -20 -20 -20 -20 -20 -20 -20 -20 -20 -20 -20 -20 -20 -20 -20 -20 -20 -20 -20 -20 -19 -1 9 -14 -20 -13 1 -16 -20 -20 -0 -6 -20 7 8 10 17 28 23 -12 -20 -20
-20 -20 -20 -20 -20 -20 -20 -20 -20 -20 -20 -20 -20 -20 -20 -20 -20 -20 -20 -20 -20 -20 -20 -20 -20 -20 -20 -20 -6 4 4 -20 -20 12 24 -6 3 7 4 11 1 -20 -20 -20 -16 -2 -20 -14 -19
-20 -20 -20 -20 -20 -20 -20 -20 -20 -20 -20 -20 -20 -20 -20 -20 -20 -20 -20 -20 -20 -20 -20 -20 -20 -20 -20 -20 -15 -3 2 -20 -20 -14 26 3 -12 18 -20 -20 -20 -20 1 -0 0 26 5 20 -1
-20 -20 -20 -20 -20 -20 -20 -20 -20 -20 -20 -20 -20 -20 -20 -20 -20 -20 -20 -20 -20 -20 -20 -20 -20 -20 -20 -20 -20 -0 4 25 -20 -12 -12 31 24 32 21 -20 -20 -18 -1 -1 4 -5 -15 20 9
-20 -20 -20 -20 -20 -20 -20 -20 -20 -20 -20 -20 -20 -20 -20 -20 -20 -20 -20 -20 -20 -20 -20 -20 -20 -20 -20 -20 -20 -1 15 4 -0 -20 -20 21 35 31 5 -19 -20 -15 7 13 19 15 10 -14 -2
-20 -20 -20 -20 -20 -20 -20 -20 -20 -20 -20 -20 -20 -20 -20 -20 -20 -20 -20 -20 -20 -20 -20 -20 -20 -20 -20 -20 -20 -5 12 27 -5 -20 -20 -15 27 27 5 -20 -20 -20 -19 2 14 20 -5 19 19
-20 -20 -20 -20 -20 -20 -20 -20 -20 -20 -20 -20 -20 -20 -20 -20 -20 -20 -20 -20 -20 -20 -20 -20 -20 -20 -20 -20 -20 10 3 -13 -13 23 -4 -20 25 36 36 8 -2 2 -13 0 -17 -18 22 12 16
-20 -20 -20 -20 -20 -20 -20 -20 -20 -20 -20 -20 -20 -20 -20 -20 -20 -20 -20 -20 -20 -20 -20 -20 -20 -20 -20 -20 -10 -12 -19 -6 9 -4 -2 -20 -20 17 13 15 14 8 2 6 6 9 8 12 16
-20 -20 -20 -20 -20 -20 -20 -20 -20 -20 -20 -20 -20 -18 -1 -19 -20 -8 -20 -20 -20 -20 -20 -20 -20 -20 -20 -5 -6 4 9 2 -7 -14 -19 -20 -20 -17 5 -19 5 4 5 -15 7 21 10 16 10
-20 -20 -20 -20 -20 -20 -20 -20 -20 -20 -20 -20 -20 -20 -17 -19 -20 0 -20 -3 10 -20 -20 -20 -20 -20 -20 7 20 9 6 -13 -11 -6 5 3 -4 -2 3 8 -7 -3 2 10 7 24 20 21 -20
-20 -20 -20 -20 1 3 -20 -0 -20 -20 -20 -20 -20 -6 4 -14 -9 -13 11 4 10 -20 -13 4 -16 -19 5 -2 -1 16 34 16 -6 14 26 5 4 0 -1 5 5 11 7 8 7 11 6 7 17
-20 -20 -20 -20 -20 -8 -20 -20 -20 -20 -18 -4 -20 -7 -13 -16 -20 -20 -16 -5 7 11 15 -10 -11 11 19 25 28 41 41 29 16 -13 4 -8 11 24 7 14 8 10 12 11 15 2 12 21 -17
-20 -19 -17 -15 -12 -20 -20 -11 -20 -20 -20 0 8 -16 -1 -4 -20 -9 -9 12 18 -4 0 8 5 -5 -20 29 44 35 28 12 18 -17 21 -20 -10 20 1 -20 -11 13 7 15 -0 14 4 21 12
-20 -13 -11 -4 -20 -20 -20 -20 -20 -20 -20 -4 1 -10 -20 -3 -20 -7 9 17 18 9 -20 17 -10 8 26 26 21 22 20 7 -20 -20 -20 -17 -12 -20 -20 -12 -17 -3 11 4 7 17 11 11 8
-20 -18 -20 -8 0 2 -20 -20 -20 -20 -20 -18 10 -20 -20 -10 -11 -1 13 -1 13 8 25 13 -8 -7 -20 -20 -20 -20 -20 -20 -20 -20 -20 -17 4 5 2 -15 -20 -4 8 0 -5 -20 -17 17 27
-20 -20 -5 6 -19 -20 -20 -20 -20 -20 -20 1 -10 -20 -20 7 2 -1 17 14 -8 -11 -7 10 8 -9 -2 3 -2 -4 -20 -0 -16 -20 -14 -5 4 6 3 5 -4 8 5 -5 13 -17 8 -7 -4
-20 -13 -20 -20 -20 -20 -20 -20 -20 -20 -20 -11 -4 -6 -20 8 -8 -2 8 -5 9 -9 -1 28 16 10 -11 -8 -8 5 14 7 0 -2 -14 -9 22 19 12 9 16 6 16 9 10 10 14 8 11
-20 -20 -20 -20 -20 -20 -20 -20 -20 -20 -20 -9 -20 -19 -20 -10 -13 7 16 14 18 21 7 29 -20 0 -1 4 -19 -2 5 3 11 -8 -8 -19 -10 19 26 14 16 18 27 30 -12 15 23 1 24
Wind_Speed
2 1 2 4 6 5 4 3 1 4 5 2 2 4 3 6 7 5 6 15 11 4 8 14 11 13 14 12 11 10 11 11 11 11 11 12 11 11 12 12 10 10 13 15 14 14 14 12 11
1 2 3 2 5 6 6 3 4 3 2 5 2 4 5 3 5 10 8 19 13 4 7 10 10 11 13 11 12 10 10 10 10 11 11 12 11 11 12 13 12 11 11 14 14 13 14 13 12
2 2 3 3 3 4 4 4 5 2 2 2 2 1 3 4 7 10 15 17 11 5 7 6 8 9 13 12 11 11 11 10 8 7 8 10 11 11 11 12 12 10 8 11 13 13 13 13 13
3 4 3 5 4 4 4 7 3 3 2 4 3 3 5 6 7 10 16 12 10 4 6 8 6 8 9 10 11 11 10 11 12 10 8 9 12 13 13 11 10 8 10 13 15 13 13 12 12
1 2 3 3 3 3 3 1 3 0 1 3 5 3 2 3 8 13 15 10 11 6 5 7 6 6 8 9 9 10 9 9 8 9 9 10 12 12 11 10 8 8 12 16 16 15 13 11 9
3 2 5 5 5 4 2 1 2 1 1 2 3 6 2 4 13 15 14 12 8 8 5 6 7 6 5 6 8 9 9 10 9 9 9 10 11 12 11 9 8 10 15 16 16 15 13 10 9
1 3 2 3 4 4 4 1 1 1 3 1 7 5 2 3 11 12 13 12 9 6 7 6 7 8 7 6 7 8 9 9 9 9 9 8 8 9 10 10 11 14 16 16 15 14 13 11 10
1 1 4 2 3 4 3 2 1 3 2 8 3 4 3 2 12 11 10 9 11 10 6 7 7 8 9 9 8 8 8 8 7 9 9 7 6 7 9 9 11 15 15 15 16 14 13 11 9
1 2 4 5 5 5 3 1 1 2 8 7 6 10 10 15 11 12 11 10 8 7 10 9 6 9 10 9 8 9 8 7 6 7 8 8 9 11 11 10 10 13 14 13 14 13 12 9 8
3 3 3 2 2 3 1 3 5 5 8 11 12 13 12 10 14 14 13 11 11 10 10 8 9 7 10 8 10 10 7 8 8 9 10 9 10 9 7 8 8 12 13 12 13 13 11 9 8
1 2 3 3 2 3 3 6 2 6 10 7 11 11 11 14 15 14 15 13 11 11 9 9 9 8 8 9 7 5 3 4 5 9 8 9 7 8 7 7 8 9 10 9 10 10 9 12 8
2 2 1 2 2 4 6 7 6 13 11 10 13 15 15 17 16 16 16 16 15 15 14 11 8 8 7 6 7 8 6 5 4 6 8 7 6 8 8 7 8 9 8 10 10 7 9 11 11
2 1 2 1 4 7 9 11 11 19 17 16 13 12 14 15 17 15 15 17 17 16 15 13 10 8 7 6 5 6 7 5 3 5 7 7 8 8 8 8 7 8 8 7 8 9 9 9 10
2 3 4 2 3 4 5 6 3 2 2 7 7 12 14 17 18 18 17 18 17 16 15 15 13 10 8 8 8 6 8 7 3 1 5 9 8 7 7 8 8 9 9 6 6 5 7 7 11
1 3 3 4 2 1 4 9 10 5 5 10 16 18 17 17 16 17 17 19 19 17 17 15 15 13 11 11 9 6 9 8 7 5 4 7 10 8 8 6 8 9 9 6 4 8 4 9 7
0 2 3 5 2 3 5 7 5 4 8 19 18 14 14 17 16 16 16 18 18 19 21 17 14 14 13 11 9 7 8 9 7 6 6 7 6 9 8 7 7 7 8 9 10 8 6 8 5
2 2 3 2 3 3 2 11 8 12 18 17 15 15 15 17 18 17 17 18 18 18 18 18 16 15 15 13 9 9 9 10 9 7 6 8 8 8 9 7 7 8 8 9 9 9 9 8 7
1 2 3 7 2 7 13 15 14 16 16 13 13 13 15 17 19 18 18 15 16 16 16 15 13 13 13 10 8 7 6 7 8 8 9 9 6 8 9 8 9 8 7 9 9 11 8 8 10
4 1 6 7 4 10 9 17 19 16 6 5 11 14 16 17 18 15 16 14 13 14 15 16 13 13 10 9 8 7 10 9 6 7 11 8 6 11 12 9 9 7 7 9 8 7 9 6 7
1 3 4 8 2 9 16 20 15 3 4 7 13 15 17 16 17 18 19 14 12 14 13 13 14 13 9 9 9 6 7 5 8 8 10 13 12 12 11 10 8 9 6 9 9 11 8 9 9
2 3 3 5 13 9 13 7 3 4 4 7 13 11 15 13 16 16 18 18 13 12 11 12 13 13 12 12 6 4 6 4 5 5 5 8 10 10 10 10 10 9 10 7 11 12 14 10 9
1 4 3 6 10 6 8 7 6 2 6 8 15 14 13 15 14 15 17 17 16 15 14 11 12 11 11 9 10 8 6 6 4 3 2 3 5 7 8 9 11 11 8 10 10 10 11 10 9
4 0 6 8 6 6 3 5 4 4 6 13 16 14 14 14 16 17 16 12 14 14 10 9 7 6 8 8 5 5 7 3 3 1 3 4 5 8 8 9 10 9 8 10 12 11 13 9 9
4 5 0 2 1 4 4 4 5 3 7 15 14 11 13 13 13 14 15 13 11 10 11 11 11 11 12 12 10 11 9 5 5 6 4 3 3 5 4 6 7 9 10 10 11 10 12 12 11
4 4 2 3 4 3 6 5 10 3 6 10 11 11 12 11 12 13 17 13 11 12 12 11 12 15 16 14 12 10 10 10 10 8 7 8 6 6 9 10 10 6 7 10 9 10 11 12 12
1 3 2 5 4 6 5 7 4 1 5 7 7 8 9 11 10 11 12 11 12 13 14 13 14 15 14 14 13 12 11 8 8 9 7 6 6 6 8 8 8 10 9 8 7 6 10 12 12
2 2 3 5 4 6 2 4 6 5 10 8 7 6 8 9 9 10 11 11 11 13 13 14 14 13 14 14 11 12 12 13 9 10 8 5 6 6 7 9 8 8 8 9 9 6 10 8 10
4 2 3 4 5 6 3 5 4 10 10 9 7 5 6 6 7 8 8 9 10 11 10 11 12 13 13 13 10 10 11 12 9 8 9 8 7 8 8 8 8 7 9 8 9 8 8 9 8
5 4 6 4 3 4 6 1 2 5 6 7 6 4 6 5 5 6 7 8 8 9 10 9 9 10 9 9 9 9 9 8 9 7 6 6 7 6 8 7 8 8 8 9 8 9 9 8 10
3 5 6 4 2 5 5 6 4 1 1 1 1 1 4 2 2 3 5 6 7 8 8 8 9 9 8 8 8 8 9 9 8 8 8 8 7 8 9 10 10 10 10 8 8 9 8 9 10
Wind_Direction
267 276 246 209 208 238 181 134 353 137 157 95 295 251 337 324 332 20 33 13 329 291 194 176 172 175 169 167 159 156 156 164 162 165 173 161 171 171 172 172 178 181 157 153 154 147 134 128 134
217 204 203 167 247 213 128 120 171 86 35 316 234 222 217 100 24 328 324 353 323 265 200 197 170 186 170 172 166 164 164 164 174 175 173 166 175 182 180 179 184 189 179 161 150 139 133 134 139
185 322 210 214 243 265 113 138 111 96 58 353 206 320 351 17 359 345 338 330 305 235 213 186 165 192 173 175 173 172 171 171 182 194 184 174 177 189 190 188 186 197 183 160 137 134 139 145 148
201 169 150 242 185 101 82 120 66 133 145 38 346 164 107 60 349 334 330 334 307 255 219 142 194 195 186 185 181 182 187 183 188 192 212 174 191 196 197 189 192 190 172 154 138 146 151 151 154
98 188 185 206 152 109 125 68 327 41 95 20 339 95 77 87 7 0 353 347 339 298 213 198 211 204 190 186 192 196 198 201 202 206 207 191 204 208 199 199 196 191 168 155 151 158 160 166 168
135 276 199 200 143 129 105 322 275 289 349 357 308 313 160 93 13 359 357 357 343 307 245 225 190 233 223 211 207 206 206 214 217 215 212 205 213 211 210 206 194 188 176 165 160 165 165 170 186
124 206 124 123 126 144 111 66 183 319 284 250 333 287 76 213 8 354 355 1 4 352 317 238 230 204 205 215 217 210 210 212 214 221 224 223 222 220 213 201 190 180 180 170 162 168 169 167 166
39 271 153 151 176 115 99 124 112 294 320 322 293 252 251 344 345 336 343 356 5 11 7 325 263 237 235 216 212 222 223 218 212 221 230 231 228 230 218 212 199 188 178 173 163 171 175 173 171
313 204 170 158 177 102 117 44 135 311 288 282 258 268 288 310 321 320 328 330 344 359 2 348 291 280 240 236 210 211 220 232 231 221 222 218 233 217 213 210 186 200 184 176 172 174 177 174 168
269 244 126 92 107 119 155 297 329 290 273 262 262 266 282 299 310 312 314 313 317 325 339 340 332 282 266 242 235 223 223 224 224 223 227 221 228 234 236 203 191 202 185 179 178 176 174 186 191
96 17 122 113 23 351 325 300 339 292 274 266 281 299 301 303 306 306 304 295 296 304 299 316 324 310 275 250 232 216 204 208 238 236 230 233 234 226 213 217 204 205 193 198 188 184 197 201 208
140 84 31 92 68 345 314 322 288 255 259 301 300 306 303 297 296 298 300 301 299 296 292 291 302 306 286 272 253 221 211 204 205 242 228 222 228 223 230 220 204 203 207 209 204 205 207 209 211
102 157 245 229 293 279 275 265 268 267 276 291 295 292 286 291 292 292 288 290 291 287 283 280 282 287 277 255 259 246 215 202 238 245 245 232 225 224 220 224 219 214 215 207 214 211 211 208 207
113 242 260 265 244 231 255 263 267 231 2 316 310 301 300 293 285 285 280 277 280 281 283 280 268 261 258 243 234 238 225 209 191 225 283 257 239 227 226 225 213 225 216 217 212 218 199 205 214
172 260 205 186 181 187 279 247 225 259 336 318 313 309 299 294 291 282 280 280 278 278 279 275 272 262 244 239 230 217 226 208 197 198 206 261 258 238 216 224 218 219 219 219 194 209 208 218 222
334 230 253 130 340 127 294 286 314 268 309 315 317 311 307 302 302 296 286 277 273 273 269 271 268 259 250 233 216 202 226 196 198 200 199 209 243 230 232 221 221 235 232 225 216 220 209 220 210
44 278 303 297 43 323 315 298 305 301 305 313 316 318 313 314 317 317 307 289 279 275 270 265 265 256 254 243 219 204 220 205 217 213 212 184 203 247 248 242 242 238 229 230 227 225 220 217 210
145 297 284 277 15 307 289 280 299 307 305 306 307 314 319 326 323 322 313 300 285 281 275 268 270 264 259 251 231 203 203 211 227 219 223 201 213 245 255 252 251 253 238 238 234 234 223 226 216
108 216 290 292 332 303 295 302 304 318 302 313 330 324 325 320 326 324 322 308 289 280 270 262 262 259 252 243 227 206 201 197 196 216 226 219 198 221 238 244 236 233 238 240 238 239 236 217 220
85 317 304 289 308 311 313 309 309 6 29 345 330 324 326 317 324 341 335 306 294 279 273 274 265 258 235 234 231 225 199 198 207 210 213 224 216 221 224 236 243 234 229 233 233 223 216 226 217
239 258 344 313 325 284 318 283 176 205 296 327 333 321 325 332 329 321 336 337 322 296 284 269 263 261 237 225 223 214 185 149 163 200 222 221 224 222 229 233 237 231 228 223 233 238 229 235 216
303 198 286 312 341 317 2 301 290 249 298 310 333 340 346 332 339 334 341 335 333 331 313 278 261 261 237 217 206 207 209 162 145 171 214 241 236 234 233 237 243 239 237 236 240 244 238 232 232
25 238 297 303 286 312 177 249 248 254 261 330 335 343 353 354 352 337 342 343 342 350 316 304 264 241 197 198 224 214 167 115 103 195 261 276 265 257 250 248 247 246 248 246 249 238 240 223 221
328 303 278 136 247 249 177 253 259 292 317 320 334 4 355 0 353 350 358 355 356 356 12 33 57 45 66 66 55 46 43 53 58 28 356 309 295 274 323 299 273 272 266 259 254 252 250 234 226
236 274 308 232 217 289 158 226 269 341 342 333 339 357 2 6 1 3 3 353 359 16 31 29 47 56 60 68 72 76 75 67 59 48 37 32 19 11 9 5 359 314 271 269 263 253 243 244 234
33 360 327 297 298 312 192 238 9 54 5 347 346 353 1 12 17 15 7 1 1 19 44 51 47 47 53 54 54 59 62 69 62 52 46 42 24 5 4 6 12 356 359 355 344 315 262 249 239
103 263 40 282 232 268 236 255 222 264 347 344 335 353 357 358 16 21 11 13 13 20 25 41 56 62 58 54 48 47 50 50 41 41 42 29 18 1 6 19 12 1 350 2 340 349 355 318 261
272 44 236 209 298 293 263 279 293 326 329 336 335 352 329 351 23 29 23 15 21 24 25 29 44 49 44 43 42 46 46 45 40 28 25 20 1 8 0 14 14 1 358 353 358 356 353 346 356
166 216 220 275 240 289 308 339 163 304 334 328 336 345 307 13 30 31 24 19 17 23 28 32 40 38 43 49 36 48 46 40 32 40 32 5 356 2 20 8 359 6 350 357 357 2 351 356 351
274 261 236 271 197 254 300 282 133 64 278 219 309 340 289 17 57 49 29 19 20 16 20 13 30 34 43 39 40 45 42 42 33 28 23 13 3 16 14 12 9 7 356 356 358 359 350 347 352